Date String (YYYY-MM-DD hh:mm:ss) UTC,Instrument flags,Ambient pressure (hPa),Sample flow (lpm),Bypass flow (lpm),Sample temperature (°C),Ambient temperature (°C),ASC tube jacket temperature (°C),LED temperature (°C),Box temperature (°C),Sample RH (%),Span deviation,Mass concentration (μg/m³),Mass concentration (μg/m³),Mass concentration (μg/m³)
DateTimeUTC,F1_M11,P_M11,Q1_M11,Q2_M11,T1_M11,T2_M11,T3_M11,T4_M11,T5_M11,U1_M11,ZSPAN_M11,X0_M11,X2_M11,X1_M11
2022-09-23 10:00:00,,0825.0,5.00,0.00,29.3,27.7,00.0,38.1,31.1,21.7,0000.0,0006.09,0003.41,0003.19
2022-09-23 10:01:00,,0825.1,5.00,0.00,29.3,27.7,00.0,38.1,31.1,21.6,0000.0,0006.15,0003.40,0003.16
2022-09-23 10:02:00,,0825.2,5.00,0.00,29.3,27.8,00.0,38.0,31.1,21.5,0000.0,0005.98,0003.37,0003.15
2022-09-23 10:03:00,,0825.1,5.00,0.00,29.3,27.8,00.0,38.1,31.1,21.1,0000.0,0005.99,0003.38,0003.15
2022-09-23 10:04:00,,0825.0,5.01,0.00,29.3,27.7,00.0,38.1,31.0,21.0,0000.0,0006.05,0003.39,0003.14
2022-09-23 10:05:00,,0824.9,4.99,0.00,29.3,27.7,00.0,38.1,31.0,21.0,0000.0,0005.93,0003.35,0003.12
2022-09-23 10:06:00,,0824.9,5.02,0.00,29.3,27.6,00.0,38.1,31.0,20.8,0000.0,0005.22,0003.32,0003.07
2022-09-23 10:07:00,,0824.8,4.99,0.00,29.3,27.6,00.0,38.1,31.0,20.8,0000.0,0004.63,0003.27,0002.99
2022-09-23 10:08:00,,0824.7,5.01,0.00,29.3,27.6,00.0,38.0,31.1,21.0,0000.0,0004.73,0003.27,0002.93
2022-09-23 10:09:00,,0824.8,4.99,0.00,29.3,27.6,00.0,38.0,31.0,21.0,0000.0,0004.88,0003.26,0002.85
2022-09-23 10:10:00,,0824.8,5.01,0.00,29.2,27.5,00.0,38.0,31.0,21.1,0000.0,0005.02,0003.25,0002.77
2022-09-23 10:11:00,,0824.9,4.98,0.00,29.2,27.5,00.0,38.0,31.0,21.0,0000.0,0004.84,0003.21,0002.69
2022-09-23 10:12:00,,0824.8,5.01,0.00,29.2,27.5,00.0,38.0,30.9,20.9,0000.0,0004.61,0003.14,0002.61
2022-09-23 10:13:00,,0824.8,4.99,0.00,29.2,27.4,00.0,38.0,30.9,20.6,0000.0,0004.49,0003.07,0002.50
2022-09-23 10:14:00,,0824.7,5.01,0.00,29.2,27.3,00.0,38.0,30.9,20.5,0000.0,0004.56,0003.04,0002.45
2022-09-23 10:15:00,,0824.7,5.01,0.00,29.2,27.4,00.0,38.0,30.9,20.4,0000.0,0004.53,0003.00,0002.40
2022-09-23 10:16:00,,0824.8,4.98,0.00,29.1,27.4,00.0,38.0,30.9,20.4,0000.0,0004.57,0002.97,0002.37
2022-09-23 10:17:00,,0824.7,5.01,0.00,29.1,27.2,00.0,38.0,30.8,19.7,0000.0,0004.62,0002.97,0002.31
2022-09-23 10:18:00,,0824.7,5.00,0.00,29.1,27.2,00.0,38.0,30.8,19.7,0000.0,0004.57,0002.92,0002.27
2022-09-23 10:19:00,,0824.8,4.99,0.00,29.1,27.2,00.0,38.0,30.8,19.8,0000.0,0004.39,0002.82,0002.20
2022-09-23 10:20:00,,0824.6,5.01,0.00,29.1,27.2,00.0,38.0,30.8,20.2,0000.0,0004.28,0002.74,0002.14
2022-09-23 10:21:00,,0824.5,5.00,0.00,29.1,27.1,00.0,38.0,30.8,20.4,0000.0,0004.94,0002.68,0002.09
2022-09-23 10:22:00,,0824.6,5.00,0.00,29.1,27.1,00.0,37.9,30.8,20.4,0000.0,0004.88,0002.63,0002.05
2022-09-23 10:23:00,,0824.8,5.00,0.00,29.0,27.1,00.0,37.9,30.8,20.5,0000.0,0004.87,0002.62,0002.03
2022-09-23 10:24:00,,0824.8,5.01,0.00,29.0,27.0,00.0,37.9,30.7,21.0,0000.0,0004.83,0002.60,0002.04
2022-09-23 10:25:00,,0824.7,5.00,0.00,29.0,27.1,00.0,37.9,30.7,21.5,0000.0,0004.66,0002.55,0002.04
2022-09-23 10:26:00,,0824.7,4.99,0.00,29.0,27.2,00.0,37.9,30.8,21.6,0000.0,0004.60,0002.54,0002.03
2022-09-23 10:27:00,,0824.8,5.01,0.00,29.0,27.3,00.0,37.9,30.8,20.9,0000.0,0004.40,0002.49,0002.03
2022-09-23 10:28:00,,0824.8,4.98,0.00,29.0,27.3,00.0,37.8,30.8,20.5,0000.0,0004.37,0002.45,0002.04
2022-09-23 10:29:00,,0824.9,5.01,0.00,29.0,27.3,00.0,37.9,30.7,20.4,0000.0,0004.40,0002.45,0002.05
2022-09-23 10:30:00,,0824.8,5.00,0.00,29.0,27.2,00.0,37.8,30.7,20.2,0000.0,0004.44,0002.49,0002.07
2022-09-23 10:31:00,,0824.5,4.99,0.00,28.9,27.1,00.0,37.8,30.7,19.3,0000.0,0004.49,0002.52,0002.08
2022-09-23 10:32:00,,0824.6,5.01,0.00,28.9,27.2,00.0,37.8,30.7,18.8,0000.0,0003.66,0002.51,0002.07
2022-09-23 10:33:00,,0824.6,5.01,0.00,28.9,27.2,00.0,37.8,30.7,19.4,0000.0,0004.09,0002.49,0002.05
2022-09-23 10:34:00,,0824.7,4.99,0.00,28.9,27.2,00.0,37.8,30.7,19.8,0000.0,0004.87,0002.46,0002.03
2022-09-23 10:35:00,,0824.7,5.01,0.00,28.9,27.2,00.0,37.8,30.7,19.7,0000.0,0004.79,0002.40,0002.00
2022-09-23 10:36:00,,0824.7,5.00,0.00,28.9,27.1,00.0,37.8,30.7,20.3,0000.0,0004.80,0002.40,0001.97
2022-09-23 10:37:00,,0824.4,4.99,0.00,28.9,27.1,00.0,37.8,30.7,19.6,0000.0,0004.91,0002.40,0001.95
2022-09-23 10:38:00,,0824.5,5.00,0.00,28.9,27.2,00.0,37.7,30.7,18.9,0000.0,0005.01,0002.42,0001.93
2022-09-23 10:39:00,,0824.7,5.00,0.00,28.9,27.3,00.0,37.7,30.7,19.0,0000.0,0004.96,0002.41,0001.92
2022-09-23 10:40:00,,0824.8,4.99,0.00,28.9,27.4,00.0,37.7,30.8,19.3,0000.0,0004.92,0002.41,0001.91
2022-09-23 10:41:00,,0824.8,5.01,0.00,28.9,27.3,00.0,37.8,30.8,19.3,0000.0,0004.88,0002.39,0001.89
2022-09-23 10:42:00,,0824.8,4.99,0.00,28.9,27.3,00.0,37.7,30.8,19.6,0000.0,0004.77,0002.34,0001.88
2022-09-23 10:43:00,,0824.9,5.01,0.00,29.0,27.4,00.0,37.7,30.8,19.6,0000.0,0004.68,0002.30,0001.89
2022-09-23 10:44:00,,0824.9,5.00,0.00,28.9,27.3,00.0,37.7,30.7,19.8,0000.0,0004.00,0002.28,0001.90
2022-09-23 10:45:00,,0824.9,5.00,0.00,28.9,27.2,00.0,37.7,30.7,19.8,0000.0,0003.18,0002.30,0001.91
2022-09-23 10:46:00,,0824.7,5.00,0.00,28.9,27.2,00.0,37.7,30.7,19.5,0000.0,0003.25,0002.34,0001.93
2022-09-23 10:47:00,,0824.6,4.99,0.00,28.9,27.2,00.0,37.7,30.7,19.3,0000.0,0003.43,0002.40,0001.94
2022-09-23 10:48:00,,0824.7,5.01,0.00,28.9,27.2,00.0,37.7,30.7,19.2,0000.0,0004.14,0002.39,0001.94
2022-09-23 10:49:00,,0824.6,4.99,0.00,28.9,27.3,00.0,37.7,30.7,19.3,0000.0,0004.33,0002.44,0001.96
2022-09-23 10:50:00,,0824.8,5.01,0.00,28.9,27.4,00.0,37.7,30.8,19.2,0000.0,0004.43,0002.47,0001.96
2022-09-23 10:51:00,,0824.8,4.99,0.00,28.9,27.4,00.0,37.7,30.8,19.4,0000.0,0004.54,0002.50,0001.97
2022-09-23 10:52:00,,0824.7,5.01,0.00,28.9,27.4,00.0,37.7,30.7,19.6,0000.0,0004.56,0002.51,0001.96
2022-09-23 10:53:00,,0824.7,4.99,0.00,28.9,27.3,00.0,37.7,30.7,19.4,0000.0,0004.62,0002.52,0001.96
2022-09-23 10:54:00,,0824.7,5.01,0.00,28.9,27.3,00.0,37.7,30.7,19.6,0000.0,0004.75,0002.56,0001.95
2022-09-23 10:55:00,,0824.7,5.00,0.00,28.9,27.2,00.0,37.7,30.7,19.2,0000.0,0004.84,0002.58,0001.95
2022-09-23 10:56:00,,0824.7,5.00,0.00,28.9,27.2,00.0,37.7,30.7,18.5,0000.0,0004.87,0002.57,0001.95
2022-09-23 10:57:00,,0824.7,5.00,0.00,28.9,27.1,00.0,37.7,30.7,18.1,0000.0,0004.99,0002.59,0001.96
2022-09-23 10:58:00,,0824.7,5.00,0.00,28.9,27.2,00.0,37.7,30.7,18.1,0000.0,0004.78,0002.51,0001.95
2022-09-23 10:59:00,,0824.7,5.01,0.00,28.9,27.3,00.0,37.7,30.7,18.2,0000.0,0004.00,0002.53,0001.96
